CAPE
41 83 127 33 0 6 69 82 0 3 6 23 16 0 10 12 1 4 0 0 0 12 55 55 37 29 88 134 137 180 21 0 189
4 30 65 112 2 53 66 95 70 0 0 13 14 21 10 23 7 3 0 0 15 15 45 45 33 4 69 83 135 139 120 24 3
2 4 1 23 82 48 69 46 54 0 1 2 26 21 0 5 6 2 3 0 1 43 33 47 34 2 53 63 71 104 121 112 6
0 0 3 2 29 55 50 18 7 38 6 6 12 0 0 0 5 5 1 1 0 0 25 37 54 48 86 78 64 72 78 92 99
0 0 0 3 3 77 46 54 24 52 21 6 2 0 0 0 0 2 8 1 0 0 19 58 61 42 56 71 58 60 62 55 82
0 0 0 1 0 0 153 83 46 61 11 0 0 0 0 0 0 1 8 0 0 0 5 51 58 33 21 60 51 40 47 53 56
0 0 0 0 0 0 19 197 119 63 14 0 0 0 0 0 0 0 0 0 0 0 0 36 48 40 13 49 32 24 15 21 31
0 0 0 0 0 0 0 62 241 110 19 1 0 0 0 0 0 0 0 0 0 0 14 52 47 42 26 43 18 11 0 0 0
0 0 0 0 0 0 0 1 23 118 77 1 0 0 0 0 0 0 0 0 0 0 43 39 42 41 25 53 22 9 0 0 0
0 0 0 0 0 0 0 0 0 39 58 13 0 0 0 0 0 0 0 0 0 0 20 52 57 43 53 52 30 13 0 0 0
0 0 0 0 0 0 0 0 0 1 56 36 14 0 0 0 0 0 0 0 0 0 24 42 54 48 56 54 39 19 0 0 0
0 0 0 0 0 0 0 0 0 2 3 91 34 11 0 0 0 0 0 0 0 0 20 39 43 38 50 51 38 26 7 0 0
0 0 0 0 0 0 0 0 0 0 2 45 137 22 0 0 0 0 0 0 0 0 0 4 21 43 34 50 51 37 13 0 0
0 0 0 0 0 0 0 0 0 0 0 1 64 94 0 0 0 0 0 0 0 0 0 0 10 27 26 29 57 35 4 0 0
0 0 0 0 0 0 0 0 0 0 0 0 0 42 11 0 0 0 0 0 0 0 0 0 0 10 15 1 47 45 8 0 0
0 0 0 0 0 0 0 0 0 0 0 0 0 68 11 2 0 0 0 0 0 0 0 0 0 0 15 8 44 50 20 6 0
0 0 0 0 0 0 0 0 0 0 0 0 0 49 13 0 0 0 0 0 0 0 0 0 0 0 12 19 8 51 24 1 0
0 0 0 0 0 0 0 0 0 0 0 0 0 1 58 3 0 0 0 0 0 0 0 0 0 0 3 4 7 50 15 9 2
0 0 0 0 0 0 0 0 0 0 0 0 0 0 0 2 1 0 0 0 0 0 0 0 0 0 6 6 1 6 26 24 22
0 0 0 0 0 0 0 0 0 0 0 0 0 0 0 0 4 7 0 0 0 0 0 0 0 0 0 3 1 7 32 32 24
CIN
-90 -69 -22 -53 0 -1 -23 -10 0 -41 -41 -23 -14 0 -11 -14 -10 -5 -2 0 0 0 -3 0 0 0 -51 -16 -12 -5 -2 0 -2
0 -97 -94 -51 -20 -47 -15 -18 -13 0 0 -23 -17 -20 -12 -17 -26 -23 0 0 -1 -4 -1 0 0 0 -89 -50 -14 -12 -17 -12 0
0 0 0 -117 -64 -65 -30 -40 -22 0 -12 -16 -19 -14 0 -20 -23 -27 -15 0 -1 -3 -6 -1 0 0 0 -7 -43 -29 -24 -24 -2
0 0 0 0 -93 -69 -57 -34 -39 -19 -8 -16 -28 0 0 0 -28 -20 -2 -7 0 0 -6 -3 0 0 -127 -112 0 -54 -50 -44 -36
0 0 0 0 0 -78 -104 -72 -47 -29 -14 -24 -21 0 0 0 0 -11 -28 -16 0 0 -4 0 0 -2 -1 0 0 0 0 -16 -54
0 0 0 0 0 0 -60 -82 -96 -50 -58 0 0 0 0 0 0 -14 -26 0 0 0 -21 0 0 -8 -5 0 0 -2 0 0 0
0 0 0 0 0 0 -232 -75 -85 -111 -124 -7 0 0 0 0 0 0 0 0 0 0 0 -4 -2 -7 -8 0 -5 -12 -13 -4 0
0 0 0 0 0 0 0 -191 -91 -87 -161 -235 0 0 0 0 0 0 0 0 0 0 -16 -2 -8 -14 -6 0 -24 -26 0 0 0
0 0 0 0 0 0 0 0 -235 -112 -107 -165 0 0 0 0 0 0 0 0 0 0 -5 -20 -8 -15 -5 0 -25 -31 0 0 0
0 0 0 0 0 0 0 0 0 -98 -109 -154 -24 0 0 0 0 0 0 0 0 0 -11 -10 -6 -9 0 0 -10 -30 0 0 0
0 0 0 0 0 0 0 0 0 0 -114 -164 -157 0 0 0 0 0 0 0 0 0 -11 -12 -11 -7 0 0 -1 -10 0 0 0
0 0 0 0 0 0 0 0 0 0 -8 -45 -162 -180 0 0 0 0 0 0 0 0 -8 -2 -3 -11 -2 0 0 -11 -22 0 0
0 0 0 0 0 0 0 0 0 0 0 -57 -49 -159 0 0 0 0 0 0 0 0 0 -10 -10 -9 -4 0 0 -4 -24 0 0
0 0 0 0 0 0 0 0 0 0 0 0 -33 -56 -24 0 0 0 0 0 0 0 0 0 -8 -7 -4 -1 0 0 -25 0 0
0 0 0 0 0 0 0 0 0 0 0 0 0 -118 -112 0 0 0 0 0 0 0 0 0 0 -8 -7 -2 0 0 -20 0 0
0 0 0 0 0 0 0 0 0 0 0 0 0 -79 -115 -50 0 0 0 0 0 0 0 0 0 0 -12 -8 -2 0 -13 -21 0
0 0 0 0 0 0 0 0 0 0 0 0 0 -40 -148 0 0 0 0 0 0 0 0 0 0 0 -18 -18 -7 -2 0 -11 0
0 0 0 0 0 0 0 0 0 0 0 0 0 -8 -49 -10 -9 0 0 0 0 0 0 0 0 0 -27 -23 -18 -2 -5 -13 -6
0 0 0 0 0 0 0 0 0 0 0 0 0 0 0 -7 -12 0 0 0 0 0 0 0 0 0 -42 -35 -10 -12 -8 -9 -6
0 0 0 0 0 0 0 0 0 0 0 0 0 0 0 0 0 -2 0 0 0 0 0 0 0 0 0 -40 -19 -13 -8 -3 -3
Wind_Speed
15 15 15 15 15 14 11 10 9 10 11 11 11 13 14 17 20 21 22 20 22 19 21 25 26 27 28 30 31 31 31 30 29
17 16 15 15 15 15 13 10 9 10 12 10 11 12 14 15 18 20 21 18 15 20 16 23 24 25 26 28 29 30 30 31 30
18 17 17 15 15 15 13 10 10 10 12 10 11 12 14 14 15 18 20 20 15 16 12 10 23 24 24 25 27 28 28 29 30
19 19 19 18 16 15 14 12 11 11 11 13 11 13 14 12 13 16 18 19 19 13 11 17 22 23 23 23 24 26 27 25 26
20 20 21 21 20 18 14 13 13 13 13 13 14 14 16 14 13 15 15 17 18 14 13 17 19 21 22 22 22 23 25 24 21
21 21 22 23 23 22 18 14 12 12 13 13 14 18 18 14 13 13 14 16 17 13 14 13 15 17 19 20 20 20 21 23 21
22 23 23 22 23 23 23 22 15 11 12 14 14 18 19 21 10 11 12 15 14 13 14 13 13 14 17 18 19 19 18 19 20
23 24 24 23 23 23 25 23 22 18 14 11 14 16 21 19 12 10 12 12 12 13 14 11 12 12 15 16 17 18 17 17 17
24 24 25 24 24 24 22 25 27 20 21 19 13 14 18 20 15 10 9 11 12 11 10 9 10 10 11 13 15 16 16 16 15
25 26 25 24 24 24 25 25 25 27 18 21 21 20 19 18 13 12 11 11 11 11 9 8 9 9 8 9 11 13 15 15 15
26 26 26 26 25 26 27 26 25 24 21 19 17 22 24 19 15 13 13 14 12 14 10 7 6 8 8 6 8 10 12 14 15
28 27 27 28 28 28 27 28 28 28 25 17 22 16 23 21 19 13 14 15 14 14 15 7 10 9 9 5 5 7 10 11 12
27 28 29 30 30 30 28 29 30 30 29 25 19 21 22 21 20 18 15 16 17 17 18 16 14 14 12 12 3 4 6 8 9
28 29 30 30 31 31 31 30 29 33 33 32 28 22 21 23 22 22 19 16 16 17 21 19 21 17 15 18 9 4 6 6 6
29 30 30 31 32 32 33 34 32 32 34 37 38 27 23 25 30 25 23 22 17 15 21 22 22 21 22 23 20 8 6 5 6
30 30 30 31 33 34 34 36 36 35 31 35 38 30 28 27 32 30 29 24 24 21 19 23 23 26 24 23 24 12 8 8 5
33 34 34 34 35 36 36 37 39 38 33 34 36 33 33 33 31 34 30 28 28 27 21 21 22 23 24 21 25 17 11 9 5
35 35 35 36 35 36 37 38 39 42 40 36 35 34 39 35 35 35 35 25 27 30 27 23 23 25 24 21 20 16 14 11 9
35 36 37 37 38 39 38 38 39 40 44 39 37 42 35 34 39 37 36 28 26 33 30 27 24 23 24 20 19 22 17 15 11
36 37 38 39 40 41 42 42 41 42 44 44 44 43 47 47 43 42 38 34 30 34 32 29 28 24 24 23 20 19 19 17 15
Wind_Direction
313 317 315 321 318 317 337 354 0 6 4 4 3 5 347 12 30 28 18 360 24 6 14 48 59 60 56 64 64 75 79 78 70
316 310 318 317 314 318 317 338 346 346 352 357 355 357 339 340 18 32 15 349 332 27 351 42 63 66 57 58 63 59 71 78 84
315 320 316 320 314 314 312 324 323 331 329 341 339 335 337 358 7 18 22 8 322 341 309 74 71 73 64 54 57 56 51 59 77
315 311 309 314 316 314 311 310 312 312 320 316 326 319 325 359 14 9 16 7 354 313 276 111 67 75 69 58 52 54 50 43 49
316 308 304 301 308 309 313 307 303 303 307 310 305 308 308 328 348 351 4 7 2 324 302 31 44 64 75 64 54 49 52 44 31
313 312 309 299 299 302 302 308 306 301 299 304 302 289 298 324 334 346 2 358 350 340 302 312 10 47 71 64 55 48 43 48 38
306 306 308 309 310 299 298 290 296 299 295 295 292 287 289 296 334 341 354 351 359 324 300 321 6 31 64 62 56 49 40 36 42
307 303 304 307 307 308 294 296 286 288 289 293 288 288 280 294 314 337 333 348 355 323 313 11 19 24 64 63 61 55 46 36 35
303 303 303 304 302 303 311 293 285 289 283 283 287 285 285 288 295 320 326 335 336 332 350 349 357 11 47 54 59 57 52 43 36
300 299 301 302 305 300 300 301 296 287 281 282 283 282 283 286 290 301 308 318 323 317 340 341 334 358 8 27 37 55 56 57 52
302 299 298 300 302 300 295 298 301 301 287 282 282 282 277 281 279 286 294 298 308 305 303 328 340 338 337 15 22 44 52 56 69
301 299 298 297 298 298 296 292 292 292 297 276 274 283 277 278 273 273 281 288 294 294 284 307 303 311 311 332 36 44 47 45 62
303 300 298 297 295 294 295 293 288 288 289 285 269 275 277 272 270 270 269 276 284 282 273 280 288 289 292 285 354 47 29 30 48
304 301 298 297 294 293 291 291 290 284 284 286 280 267 270 268 267 266 265 264 272 275 270 273 271 275 281 269 284 307 325 347 13
303 301 299 298 295 292 290 286 287 285 283 282 280 270 263 266 263 261 264 263 259 265 268 268 268 267 266 262 263 278 295 319 332
304 303 302 300 295 293 291 286 283 282 284 282 279 268 264 260 261 259 260 260 260 262 262 264 265 263 262 262 256 265 270 286 312
302 299 298 298 295 292 289 286 281 278 279 274 278 270 266 260 259 260 258 260 260 258 255 260 261 257 258 260 256 259 259 267 278
301 300 299 297 295 291 289 286 281 276 274 271 268 271 266 262 260 256 259 255 258 252 254 254 255 254 256 255 256 249 251 257 259
302 300 298 297 294 290 288 286 281 278 271 270 266 264 269 272 263 257 252 251 250 248 251 251 251 250 250 247 251 249 246 249 252
301 300 298 295 292 290 287 284 281 277 273 266 264 265 263 266 270 255 251 252 248 249 248 248 247 245 244 244 246 246 242 243 248